Location: Erfurt
(50.9688°N, 11.0193°E)
Time: 03:15:28
(UTC+02:00)

ISS - Visible Passes

Search period start: 25 May 2017 00:00
Search period end: 04 June 2017 00:00
Orbit: 402 x 409 km, 51.6° (Epoch: 25 May)

Date Brightness Start Highest point End Pass type
(mag) Time Alt. Az. Time Alt. Az. Time Alt. Az.
25 May -3.7 01:06:12 10° W 01:09:30 77° N 01:12:48 10° E visible
25 May -4.0 02:42:45 10° WNW 02:46:02 71° SSW 02:49:19 10° ESE visible
25 May -2.5 04:19:39 10° W 04:22:10 20° SW 04:24:40 10° SSE visible
25 May -3.3 22:37:59 10° SW 22:41:04 38° SSE 22:44:11 10° E visible
26 May -3.8 00:14:08 10° W 00:17:27 84° N 00:20:46 10° E visible
26 May -3.9 01:50:43 10° W 01:54:01 89° SSW 01:57:19 10° ESE visible
26 May -3.1 03:27:21 10° W 03:30:18 30° SSW 03:33:14 10° SSE visible
26 May -3.9 23:22:06 10° WSW 23:25:24 82° SSE 23:28:42 10° ENE visible
27 May -3.8 00:58:39 10° W 01:01:58 80° N 01:05:16 10° E visible
27 May -3.6 02:35:13 10° W 02:38:23 45° SSW 02:41:32 10° SE visible
27 May -1.8 04:13:18 10° WSW 04:14:14 11° SW 04:15:10 10° SSW visible
27 May -3.8 22:30:06 10° WSW 22:33:22 63° SSE 22:36:39 10° E visible
28 May -3.7 00:06:34 10° W 00:09:53 77° N 00:13:11 10° E visible
28 May -3.9 01:43:07 10° WNW 01:46:24 64° SSW 01:47:25 38° SE visible
28 May -3.7 23:14:28 10° W 23:17:47 80° N 23:21:05 10° E visible
29 May -4.0 00:51:02 10° WNW 00:54:21 83° SSW 00:56:00 27° ESE visible
29 May -1.7 02:27:45 10° W 02:28:36 15° W 02:28:36 15° W visible
29 May -3.8 22:22:23 10° WSW 22:25:41 88° S 22:28:59 10° E visible
29 May -3.8 23:58:57 10° W 00:02:15 83° N 00:05:05 13° E visible
30 May -2.8 01:35:31 10° W 01:37:42 31° WSW 01:37:42 31° WSW visible
30 May -3.7 23:06:50 10° W 23:10:08 77° N 23:13:27 10° E visible
31 May -3.8 00:43:22 10° W 00:46:37 56° SSW 00:47:00 52° S visible
31 May -3.7 22:14:41 10° W 22:18:00 78° N 22:21:18 10° E visible
31 May -3.9 23:51:15 10° WNW 23:54:33 76° SSW 23:56:23 24° ESE visible
01 Jun -1.7 01:28:03 10° W 01:29:01 16° WSW 01:29:01 16° WSW visible
01 Jun -3.8 22:59:07 10° W 23:02:26 88° N 23:05:44 10° E visible
02 Jun -3.0 00:35:43 10° W 00:38:28 33° SW 00:38:28 33° SW visible
02 Jun -3.7 22:06:58 10° W 22:10:17 79° N 22:13:35 10° E visible
02 Jun -3.6 23:43:30 10° W 23:46:44 49° SSW 23:47:56 31° SSE visible
03 Jun -3.8 22:51:20 10° WNW 22:54:38 69° SSW 22:57:28 13° ESE visible
